Regional Weather Roundup
Issued by NWS

Home | Current Version | Previous Version | Text Only | Print | Product List | Glossary Off
Versions: 1 2 3 4 5 6 7 8 9 10 11 12 13 14 15 16 17 18 19 20 21 22 23 24 25 26 27 28 29 30 31 32 33 34 35 36 37 38 39 40 41 42 43 44 45 46 47 48 49 50

501
ASUS44 KMEG 210910
RWRTN
TENNESSEE HOURLY STATE WEATHER ROUNDUP
NATIONAL WEATHER SERVICE MEMPHIS TN
400 AM CDT THU SEP 21 2017

TNZ002-004-019-021-049-052-054-088>092-211000-
WEST TENNESSEE

CITY           SKY/WX    TMP DP  RH WIND       PRES   REMARKS
MEMPHIS INTL   CLEAR     75  71  87 SW6       30.01R
NWS MEMPHIS      N/A     73 N/A N/A MISG        N/A
JACKSON        CLEAR     69  69 100 CALM      30.03R
DYERSBURG      CLEAR     71  71 100 CALM      30.02R FOG
SOMERVILLE     CLEAR     72  70  94 CALM      30.01R FOG
COVINGTON      FOG       70  70 100 CALM      30.01S VSB 1/4
BOLIVAR        CLEAR     68  68 100 CALM      30.02R
PARIS          CLEAR     68  66  94 CALM      30.02R FOG
HUNTINGDON     CLEAR     70  70 100 CALM      30.02R
LEXINGTON      FOG       68  68 100 CALM      30.03R VSB 1
SELMER         CLEAR     70  68  94 CALM      30.03R FOG
SAVANNAH       CLEAR     68  68 100 CALM      30.02R FOG
$$

TNZ008-025-027-028-033-062-065-066-211000-
NORTH MIDDLE TENNESSEE

CITY           SKY/WX    TMP DP  RH WIND       PRES   REMARKS
NASHVILLE      CLEAR     71  68  90 NE5       30.06R
PORTLAND       CLEAR     68  68 100 CALM      30.05R FOG
CLARKSVILLE    FOG       69  67  93 CALM      30.04R VSB 1/2
SMYRNA           N/A    N/A N/A N/A MISG        N/A
COOKEVILLE     CLEAR     61  61 100 CALM      30.07R FOG
GALLATIN       CLEAR     68  68 100 CALM      30.07S FOG
CROSSVILLE     CLEAR     62  61  96 CALM      30.12R FOG
$$

TNZ061-075-076-078-094-096-097-211000-
SOUTH MIDDLE TENNESSEE

CITY           SKY/WX    TMP DP  RH WIND       PRES   REMARKS
TULLAHOMA      PTCLDY    66  64  94 CALM      30.08R
WINCHESTER     CLEAR     64  64 100 CALM        N/A
MCMINNVILLE    CLOUDY    64  64 100 CALM      30.07R VSB 1/4
SHELBYVILLE    PTCLDY    68  68 100 CALM      30.05S FOG
$$

TNZ017-018-042-046-047-211000-
NORTHEAST TENNESSEE

CITY           SKY/WX    TMP DP  RH WIND       PRES   REMARKS
TRI CITIES     PTCLDY    58  58 100 CALM      30.11R FOG
ELIZABETHTON   CLEAR     61  59  94 CALM      30.12R
$$

TNZ012-013-036-069-073-074-211000-
CENTRAL EAST TENNESSEE

CITY           SKY/WX    TMP DP  RH WIND       PRES   REMARKS
KNOXVILLE      PTCLDY    66  64  93 CALM      30.07R
OAK RIDGE      CLEAR     65  63  93 CALM      30.09R
DOWNTOWN KNOXV FOG       66  66 100 CALM      30.07R VSB 1
GATLINBURG     CLEAR     63  61  94 CALM      30.08R
MORRISTOWN     CLEAR     64  64 100 CALM      30.09R
JACKSBORO      FOG       63  63 100 CALM      30.12S VSB 1/4
$$

TNZ083-085-099-211000-
SOUTHEAST TENNESSEE

CITY           SKY/WX    TMP DP  RH WIND       PRES   REMARKS
CHATTANOOGA    CLEAR     71  68  90 N5        30.05R
DAYTON         FOG       66  64  94 CALM      30.06R VSB 1/2
$$

SKY/WX REPORTED AS FAIR MEANS FEW OR NO CLOUDS BELOW
12 THOUSAND FEET.





USA.gov is the U.S. government's official web portal to all federal, state and local government web resources and services.